Reflectivity
-20 -20 -20 -20 -20 -20 -20 -20 -20 -20 -20 -20 -20 -20 -20 -20 -20 -20 -20 -20 -20 -20 -20 -20 -20 -20 -20 -12 -20 -20 -12 -14 9 19 -11 -5 -20 -20 -20 -20 -20 7 1 8
-17 -20 -20 -20 -20 -20 -20 -20 -20 -20 -20 -20 -20 -20 -20 -20 -20 -20 -20 -20 -20 -20 -20 -20 -20 -20 -20 -20 -20 -20 -19 -17 -4 -20 -20 -20 -20 -20 -20 -20 -20 -20 -20 -20
-3 -16 -19 -13 -20 -20 -20 -20 -20 -20 -20 -19 -20 -20 -20 -20 -20 -20 -20 -20 -20 -20 -20 -20 -20 -20 -20 -20 -20 -20 -20 -20 -20 -20 -20 -20 -20 -20 -20 -20 -20 -20 -20 -20
-12 -15 -20 -20 -20 -20 -20 -20 -20 -20 -20 -20 -20 -20 -20 -20 -20 -20 -20 -20 -20 -20 -20 -20 -20 -20 -20 -20 -20 -20 -20 -20 -20 -20 -20 -20 -20 -20 -20 -20 -20 -20 -20 -20
-20 -20 -20 -20 -20 -14 -20 -18 -17 -20 -20 -20 -20 -20 -20 -20 -20 -20 -20 -20 -20 -20 -20 -20 -20 -20 -20 -20 -20 -20 -20 -20 -20 -20 -20 -20 -20 -20 -20 -20 -20 -20 -20 -20
-8 -20 -20 -20 -20 -20 -20 -20 -20 -20 -20 -20 -20 -20 -20 -20 -20 -20 -20 -20 -20 -20 -20 -20 -20 -20 -20 -20 -20 -20 -20 -20 -20 -20 -20 -20 -20 -20 -20 -20 -20 -20 -20 -20
15 -13 -20 -20 -20 -20 -20 -20 -20 -20 -20 -20 -20 -20 -20 -20 -20 -20 -20 -20 -20 -20 -20 -20 -20 -20 -20 -20 -20 -20 -20 -20 -20 -20 -20 -20 -20 -20 -20 -20 -20 -20 -20 -20
-15 -12 -20 -20 -20 -20 -20 -20 -20 -20 -20 -20 -20 -20 -20 -20 -20 -20 -20 -20 -20 -20 -20 -20 -20 -20 -20 -20 -20 -20 -20 -20 -20 -20 -20 -20 -20 -20 -20 -20 -20 -20 -20 -20
-20 -20 -20 -20 -20 -20 -20 -20 -20 -19 -18 -20 -20 -20 -20 -20 -20 -20 -20 -20 -20 -20 -20 -20 -20 -20 -20 -20 -20 -20 -20 -20 -20 -20 -20 -20 -20 -20 -20 -20 -20 -20 -20 -20
-20 -20 -20 -20 -17 -20 -20 -20 -20 -20 -20 -20 -20 -20 -20 -20 -20 -20 -20 -20 -20 -20 -20 -20 -20 -20 -20 -20 -20 -20 -20 -20 -20 -20 -20 -20 -20 -20 -20 -20 -20 -20 -20 -20
-16 9 -14 -7 5 -5 -15 -3 -20 -20 -20 -20 -20 -20 -20 -20 -20 -20 -20 -20 -20 -20 -20 -20 -20 -20 -20 -20 -20 -20 -20 -20 -20 -20 -20 -20 -20 -20 -20 -20 -20 -20 -20 -20
-20 -3 -1 -8 -19 -5 5 -8 -20 -6 -3 -1 -15 -20 -20 -20 -20 -20 -20 -20 -20 -20 -20 -20 -20 -20 -20 -20 -20 -20 -20 -20 -20 -20 -20 -20 -20 -20 -20 -20 -20 -20 -20 -20
-7 17 13 3 8 9 2 -18 -20 -20 -20 -20 -20 -20 -20 -20 -20 -20 -20 -20 -20 -17 -20 -20 -20 -20 -20 -20 -20 -20 -20 -20 -20 -20 -20 -20 -20 -20 -20 -20 -20 -20 -19 -9
10 19 25 3 6 4 -20 -20 -20 -17 -15 -18 -20 -20 -20 -20 -20 -20 -20 -20 -20 -20 -20 -20 -20 -20 -20 -20 -20 -20 -20 -20 -20 -20 -20 -20 -20 -20 -20 -20 -20 -20 -16 -20
27 33 27 13 -20 -5 -6 -9 -4 4 -7 -3 -16 -20 -20 -20 -20 -20 -20 -20 -20 -20 -20 -17 -20 -20 -20 -20 -20 -20 -20 -20 -20 -20 -20 -20 -20 -20 -20 -20 -20 -20 -20 -20
12 32 21 10 -20 -11 -6 -20 -20 -20 -20 -20 -20 -20 -20 -20 -20 -20 -20 -20 -20 -17 1 -20 -20 -20 -20 -20 -20 -20 -20 -20 -20 -20 -20 -20 -20 -20 -20 -20 -20 -20 -20 -20
3 24 36 32 -8 11 19 2 -20 -20 -20 -20 -20 -20 -20 -12 -11 1 13 27 24 -9 -5 -13 -12 -17 -20 -20 -20 -20 -20 -20 -20 -20 -20 -20 -20 -20 -20 -20 -20 -20 -20 -19
33 19 36 29 20 23 34 -2 -17 -8 2 3 -14 -20 -20 -3 19 26 14 -18 -9 4 -6 8 3 -20 -20 -20 -20 -20 -20 -20 -20 -20 -20 -20 -20 -20 -20 -20 -20 -20 -20 -14
-3 -3 27 17 15 32 14 -18 1 9 -3 6 10 4 21 25 27 26 -5 -8 11 16 18 13 -13 -20 -20 -20 -20 -20 -20 -20 -20 -20 -20 -20 -20 -20 -20 -20 -20 -18 -19 3
-20 -10 25 27 17 27 -1 -17 -11 10 26 -13 2 8 -11 8 21 2 14 15 6 17 6 -15 -19 3 -16 -20 -20 -20 -20 -20 -20 -20 -20 -20 -20 -20 -20 -4 -20 -20 -0 -20
7 11 6 17 27 15 -20 -20 -12 11 6 -3 22 27 21 0 -20 3 -6 17 20 2 13 15 -11 -10 -20 -20 -20 -20 -20 -20 -20 -18 -18 -20 -20 -14 -19 0 -20 -6 -20 -20
-17 -14 -1 17 18 12 -18 -20 -15 -12 3 1 13 10 6 -12 -20 -20 -20 -18 20 24 -1 -10 -20 -20 -20 -20 -20 -20 -20 -20 -20 -20 -20 -20 -8 -6 6 -17 -1 -15 -20 -20
-20 -20 -18 6 -2 -15 -20 4 5 -20 -20 -20 -16 -1 -0 -7 -16 -20 -20 2 2 0 -19 -20 -20 -20 -20 -20 -20 -20 -20 -20 6 -20 -15 -8 -2 -20 -20 3 8 4 -20 -20
-16 -20 -17 -1 -10 -20 -19 4 14 -3 -16 -16 -16 -20 -20 -20 -20 -20 -0 -20 -20 -20 -20 -20 -20 -20 -20 -20 -20 -20 -20 -20 -9 -20 -1 -20 -4 -20 -20 -20 8 -20 -19 -0
-0 9 16 22 13 -0 -11 -13 -18 4 -20 -20 -20 -20 -20 -20 -20 -20 -20 -20 -20 -20 -20 -20 -20 -20 -20 -20 -20 -20 -20 -20 -20 -14 -13 -20 -20 -20 -20 -20 -20 -18 10 5
-14 -10 -3 3 -17 -18 2 9 10 -3 -11 -3 -4 -20 -20 -20 -20 -20 -20 -20 -20 -20 -20 -20 -20 -20 -20 -20 -20 -20 -12 -20 -20 -20 -15 -16 -20 -20 -20 -20 2 5 -4 -8
Wind_Speed
5 5 15 17 14 7 3 7 7 4 6 3 8 7 10 12 6 4 6 8 7 6 3 4 5 6 9 9 10 9 10 7 6 3 3 3 3 3 2 2 3 3 1 3
4 23 21 10 10 13 10 7 7 4 8 2 6 17 16 9 7 8 11 9 9 6 6 4 6 7 8 7 9 10 9 8 6 4 3 4 3 3 2 2 2 1 0 1
25 15 19 15 13 18 20 20 7 5 4 7 3 17 7 7 5 5 7 6 6 11 11 7 6 7 6 8 8 8 8 8 7 8 4 4 4 3 3 3 3 4 6 5
16 23 15 15 24 15 19 10 12 10 5 10 4 12 5 5 8 5 3 8 9 10 6 7 7 6 7 6 6 8 8 7 6 5 4 4 3 2 2 2 2 5 4 6
21 13 25 15 23 17 11 11 13 12 7 4 4 7 4 3 6 9 8 8 9 9 9 8 8 8 6 7 7 7 8 7 6 7 7 5 4 2 1 2 5 5 6 7
31 5 17 33 16 19 6 4 4 3 5 11 8 8 20 9 11 6 4 8 13 12 9 7 5 6 6 5 7 7 9 6 7 7 7 7 5 1 1 2 3 4 4 5
14 24 3 8 9 13 9 8 2 3 5 11 15 11 25 3 6 9 15 14 13 10 11 9 9 7 7 8 7 7 8 6 6 7 5 4 3 1 3 4 3 5 4 5
14 9 28 10 13 11 21 15 7 12 9 7 7 15 12 4 4 6 12 15 10 9 9 10 9 8 8 7 7 8 7 6 5 4 2 2 2 2 3 4 4 4 6 8
18 21 4 17 7 19 7 16 20 5 3 3 6 7 4 1 5 7 13 15 15 14 11 11 9 9 8 8 8 8 7 5 3 1 2 3 3 4 4 7 6 7 8 9
12 8 9 18 13 20 17 16 10 7 6 9 9 8 9 5 8 8 14 18 12 10 9 8 8 8 6 6 6 6 5 3 2 4 4 4 6 6 6 6 10 11 11 12
24 5 3 17 16 24 12 15 5 7 6 10 9 14 10 20 19 19 15 15 15 14 13 9 8 6 7 6 5 5 2 1 3 4 5 6 7 7 7 8 10 11 11 13
31 14 15 16 12 20 24 16 25 13 11 3 5 22 2 11 15 17 17 16 13 15 13 9 8 8 7 7 5 4 2 2 3 5 6 7 7 7 9 9 10 12 13 14
27 17 13 4 2 1 24 23 16 4 5 13 7 21 5 8 12 14 19 16 15 14 10 8 8 8 7 7 5 4 2 4 4 5 6 7 7 7 8 9 11 12 15 16
25 21 31 25 28 7 7 21 24 15 11 23 19 13 3 9 14 12 12 13 14 15 13 10 8 7 7 6 4 3 5 3 4 5 6 6 7 7 7 12 12 12 13 14
17 25 22 33 17 18 22 20 28 29 31 20 32 18 13 17 20 20 14 13 15 13 12 12 9 8 7 5 5 4 4 4 3 5 6 6 7 6 9 11 12 13 13 12
10 9 26 27 25 11 4 19 25 32 33 25 26 16 12 16 10 11 15 15 16 15 13 13 9 8 7 7 6 4 4 4 3 5 6 6 6 8 12 14 15 15 13 13
10 10 6 25 26 19 12 31 11 21 27 32 25 23 13 13 17 20 16 16 17 15 15 13 10 9 7 6 6 5 2 3 5 5 5 5 10 9 10 11 13 13 13 12
8 13 6 2 14 21 20 9 29 17 13 23 24 9 17 18 17 11 13 18 17 16 14 10 8 7 6 5 4 2 2 4 5 5 8 8 8 9 10 10 11 11 10 11
6 8 4 5 10 3 5 7 16 21 34 22 17 12 11 12 12 10 11 15 17 17 14 10 8 6 6 6 5 2 2 3 4 8 8 8 8 9 9 10 10 10 9 9
6 8 3 2 5 8 1 3 7 6 20 16 20 21 16 18 14 15 11 11 13 14 10 9 8 6 7 5 4 1 2 4 7 7 8 8 8 9 9 9 10 6 7 8
5 6 15 8 3 7 6 5 7 10 8 14 22 19 24 23 22 12 17 14 16 13 11 8 7 7 7 6 5 2 3 4 4 6 7 7 7 8 8 8 6 6 6 5
10 9 5 4 4 14 11 5 14 7 3 5 8 17 24 10 11 16 18 17 13 10 8 8 8 7 6 6 4 1 3 2 4 5 5 7 7 6 5 6 6 5 5 3
7 6 9 12 9 1 15 4 3 3 5 4 7 8 9 10 7 15 15 14 11 10 9 7 9 9 5 6 5 2 1 2 3 4 5 5 6 6 5 5 5 4 3 3
2 1 3 3 6 4 10 3 6 4 5 7 8 14 13 11 16 15 12 10 8 8 8 7 10 8 7 7 5 3 2 1 2 4 4 5 6 6 5 5 4 3 5 2
3 8 7 3 4 3 3 5 6 8 10 14 11 13 13 17 13 14 9 8 8 8 7 8 8 7 6 5 3 1 2 4 2 2 2 3 5 4 6 3 4 4 2 4
6 9 9 10 10 4 6 9 11 13 11 14 17 9 6 11 11 9 9 7 7 8 6 7 7 7 6 5 4 3 2 3 2 1 3 3 3 5 4 2 2 10 11 11
Wind_Direction
188 188 210 201 202 217 221 205 208 232 261 264 233 262 263 283 297 197 194 190 181 145 79 45 46 59 90 83 95 105 107 102 111 90 99 101 106 100 61 18 332 307 265 246
185 230 214 191 208 218 227 216 216 288 271 259 271 268 256 237 237 197 194 197 184 155 137 112 69 66 66 90 90 96 104 105 101 107 99 79 66 54 62 15 16 27 38 57
200 216 201 198 203 212 227 230 214 225 334 266 275 275 220 227 213 212 204 187 166 170 163 159 126 108 95 86 99 100 95 96 84 88 80 58 43 24 18 359 355 353 356 339
225 235 195 198 216 195 235 177 223 226 146 255 163 281 283 225 230 222 165 183 173 166 163 157 146 129 126 115 103 102 100 97 87 90 90 98 104 67 9 17 331 328 329 314
222 183 209 204 213 188 234 191 209 220 213 311 203 295 229 133 226 236 210 188 176 167 167 163 161 147 134 128 124 116 103 86 69 65 72 78 78 63 339 342 328 310 302 290
228 186 192 219 208 203 168 76 110 104 126 252 166 194 262 203 198 218 179 191 179 164 160 155 148 131 121 122 115 107 99 87 83 88 94 105 108 124 329 282 264 265 258 264
232 227 282 156 159 184 178 135 168 213 196 249 167 185 250 346 189 192 193 187 178 160 149 149 149 146 141 135 126 120 114 109 110 103 95 92 91 158 242 262 262 290 298 294
210 212 212 188 198 179 188 185 183 202 198 234 167 228 233 225 280 239 189 170 152 149 148 155 156 153 152 147 139 127 126 124 112 95 116 165 168 206 244 246 264 254 255 266
201 234 142 187 170 166 185 211 206 107 30 56 214 287 282 241 298 176 161 159 172 162 159 155 160 166 158 156 154 144 137 137 144 85 30 328 303 310 292 296 276 268 277 286
217 227 197 190 188 195 183 186 181 219 194 234 232 241 220 203 212 176 175 172 164 148 146 152 166 166 158 158 146 131 130 111 22 357 331 309 309 302 286 276 272 280 283 287
221 176 274 165 191 192 185 189 204 172 172 212 255 252 196 189 191 186 179 169 162 155 160 168 170 158 156 149 150 159 141 36 330 321 307 296 282 275 275 275 280 285 290 290
211 219 233 208 205 216 201 190 195 195 212 239 156 255 229 184 181 170 167 160 159 160 164 164 158 156 155 164 171 189 212 287 291 292 287 277 276 277 278 283 292 297 291 289
197 213 214 210 299 248 214 218 211 116 79 208 154 257 10 138 155 173 157 163 162 158 149 146 148 162 172 182 196 212 248 266 282 280 270 275 280 281 285 292 299 298 301 301
195 207 213 220 223 150 213 209 219 207 219 228 220 227 158 162 158 164 166 164 158 160 160 157 155 171 180 193 202 241 260 246 256 271 285 282 278 280 283 309 304 306 306 305
214 218 217 229 228 204 210 208 213 213 224 214 241 236 198 181 175 179 166 159 161 161 157 166 166 175 188 200 220 229 236 229 261 281 279 277 276 277 311 310 311 305 300 296
190 224 215 234 228 210 228 216 208 216 224 229 236 250 166 176 153 159 173 167 173 168 169 170 170 172 189 201 210 203 214 284 297 294 288 284 289 320 325 322 319 315 307 309
149 200 177 226 220 231 238 230 217 220 222 220 221 225 149 170 178 180 168 174 175 175 170 170 172 185 188 190 193 187 256 309 323 305 284 300 325 322 318 313 315 310 312 313
175 193 186 219 206 221 250 200 225 223 228 224 237 157 176 179 185 177 180 170 175 173 164 168 179 185 170 168 147 141 359 340 310 303 328 326 321 315 306 308 312 314 314 309
137 158 166 169 199 318 231 203 205 206 236 225 226 214 183 177 150 208 181 177 173 166 165 175 190 150 147 152 133 64 351 319 327 328 317 314 312 306 312 318 315 315 309 309
160 133 149 130 192 213 13 244 188 132 250 214 210 214 171 150 190 209 159 152 144 154 157 161 161 135 143 132 113 114 345 330 327 324 311 309 306 308 317 313 319 316 306 298
151 177 207 204 196 272 215 156 140 164 254 191 187 179 166 184 207 138 140 146 158 156 156 142 153 155 145 135 139 135 336 311 309 302 295 304 314 320 313 312 316 300 289 288
160 155 169 140 153 245 157 141 178 200 335 158 173 178 184 170 117 140 155 150 140 143 141 152 139 140 142 138 156 147 313 270 287 287 306 318 326 320 311 321 308 293 287 335
192 188 176 188 209 195 177 136 124 139 143 147 127 162 150 123 135 149 151 147 143 159 153 140 142 148 148 173 169 115 277 285 320 312 328 313 327 326 323 324 308 314 348 348
276 314 120 136 211 201 190 59 134 144 138 138 136 147 143 123 138 139 141 135 143 148 152 143 151 156 175 180 167 167 213 80 313 336 320 320 329 338 322 324 352 342 11 314
201 137 138 264 272 56 102 140 129 95 108 111 116 133 128 127 131 139 137 143 148 147 145 149 159 168 163 157 194 260 64 47 40 324 317 324 327 333 321 325 21 19 17 20
186 175 178 209 169 142 155 133 137 125 124 122 118 99 71 128 132 128 135 140 141 146 140 145 153 139 143 150 141 121 101 117 83 6 331 314 320 326 276 313 5 50 59 52